カタログに戻る

STARLINK-37180

運用中通信VLEO
NORAD 68333·PAYLOAD·🇺🇸 United States

打ち上げ Mar 22, 2026 から Cape Canaveral Space Force Station

Loading…

次のパス (今後24時間)

TLE

最新Source: CelesTrak SupGP

元期: Sep 15, 2026, 04:27 UTC

1 68333C 26059N   26258.18590278 -.00034354  00000+0 -10150-2 0  2585
2 68333  53.1580 180.7240 0001386  83.0423 217.7858 15.34408556    17

AllMySatでSTARLINK-37180をリアルタイム追跡

Download on the App Store